Zurück zum Katalog

COSMOS 1084

AktivNavigationLEO
NORAD 11299·PAYLOAD·🇷🇺 Russia

Gestartet Mar 15, 1979 von Plesetsk Cosmodrome

Loading…

Nächste Überflüge (nächste 24 Stunden)

TLE

AktuellSource: Space-Track

Epoche: Sep 14, 2026, 13:48 UTC

1 11299U 79024D   26257.57563755 -.00000012  00000-0  26079-4 0  9991
2 11299  74.0338 200.3339 0002293 321.4540 151.3212 12.50494992168289

Verfolge COSMOS 1084 in Echtzeit mit AllMySat

Download on the App Store